Location: Unspecified
(51.0000°N, 12.0000°E)
Time: 17:58:09
(UTC+02:00)

ISS - Pass Details

Date: 08 January 2018
Orbit: 401 x 409 km, 51.6° (Epoch: 19 August)

Event Time Altitude Azimuth Distance (km) Brightness Sun altitude
Exits shadow 05:21:50 29° 83° (E) 801 -1.8 -25.9°
Drops below altitude 10° 05:23:40 10° 88° (E) 1,513 0.1 -25.6°
Enters shadow 06:18:40 -71° 283° (WNW) 12,470 3.7 -17.1°
Maximum altitude 06:56:58 62° 200° (SSW) 482 -3.5 -11.4°
